Pontiac, IL

8:48 PM CDT on October 22, 2017 (GMT -0500)
Pontiac Municipal

Weather History for KPNT - October, 2012

Change the Weather History Date:

Tuesday, October 30, 2012

  Actual Average Record
Temperature  
Mean Temperature 44 °F -  
Max Temperature 51 °F 59 °F 85 °F (1950)
Min Temperature 37 °F 39 °F 9 °F (1925)
Degree Days  
Heating Degree Days 21    
Moisture  
Dew Point 27 °F    
Average Humidity 56    
Maximum Humidity 70    
Minimum Humidity 35    
Precipitation  
Precipitation 0.00 in - - ()
Sea Level Pressure  
Sea Level Pressure 29.88 in    
Wind  
Wind Speed 17 mph (NNW)    
Max Wind Speed 28 mph    
Max Gust Speed 36 mph    
Visibility 10 miles    
Events      
Averages and records for this station are not official NWS values.
T = Trace of Precipitation, MM = Missing Value Source: NWS Daily Summary

Daily Weather History Graph

Daily Weather History Graph

Search for Another Location

Airport or City:

Trip Planner

Search our weather history database for the weather conditions in past years. The results will help you decide how hot, cold, wet, or windy it might be!

Date:

Astronomy

Oct. 30, 2012 Rise Set
Actual Time 7:23 AM CDT 5:52 PM CDT
Civil Twilight 6:55 AM CDT 6:20 PM CDT
Nautical Twilight 6:22 AM CDT 6:53 PM CDT
Astronomical Twilight 5:50 AM CDT 7:24 PM CDT
Moon 6:21 PM CDT (10/30) 8:10 AM CDT (10/30)
Length of Visible Light 11h 25m
Length of Day
10h 28m
Full, 99% of the Moon is Illuminated
Oct 30
Full
Nov 6
Last Quarter
Nov 13
New
Nov 20
First Quarter
Nov 28
Full

Hourly Weather History & Observations

Time (CDT) Temp. Windchill Dew Point Humidity Pressure Visibility Wind Dir Wind Speed Gust Speed Precip Events Conditions
12:15 AM 39.2 °F 32.0 °F 28.4 °F 65% 30.06 in 10.0 mi NW 11.5 mph - N/A   Clear
12:35 AM 37.4 °F 29.3 °F 28.4 °F 70% 30.06 in 10.0 mi NNW 12.7 mph - N/A   Clear
12:55 AM 37.4 °F 29.8 °F 28.4 °F 70% 30.05 in 10.0 mi NNW 11.5 mph - N/A   Clear
1:15 AM 37.4 °F 29.3 °F 28.4 °F 70% 30.04 in 10.0 mi NW 12.7 mph - N/A   Clear
1:35 AM 37.4 °F 28.9 °F 28.4 °F 70% 30.03 in 10.0 mi NW 13.8 mph - N/A   Clear
1:55 AM 37.4 °F 28.5 °F 28.4 °F 70% 30.02 in 10.0 mi NW 15.0 mph - N/A   Clear
2:15 AM 37.4 °F 28.5 °F 28.4 °F 70% 30.01 in 10.0 mi NW 15.0 mph 19.6 mph N/A   Clear
2:35 AM 37.4 °F 28.5 °F 28.4 °F 70% 30.00 in 10.0 mi NNW 15.0 mph 21.9 mph N/A   Clear
2:55 AM 39.2 °F 29.8 °F 28.4 °F 65% 30.00 in 10.0 mi NNW 18.4 mph 23.0 mph N/A   Clear
3:15 AM 39.2 °F 30.5 °F 28.4 °F 65% 29.99 in 10.0 mi NNW 16.1 mph 21.9 mph N/A   Clear
3:35 AM 39.2 °F 29.6 °F 28.4 °F 65% 29.98 in 10.0 mi NNW 19.6 mph 23.0 mph N/A   Clear
3:55 AM 39.2 °F 30.2 °F 28.4 °F 65% 29.97 in 10.0 mi NNW 17.3 mph 20.7 mph N/A   Clear
4:15 AM 39.2 °F 29.3 °F 28.4 °F 65% 29.96 in 10.0 mi NNW 20.7 mph 24.2 mph N/A   Clear
4:35 AM 37.4 °F 27.8 °F 28.4 °F 70% 29.96 in 10.0 mi NNW 17.3 mph 24.2 mph N/A   Clear
4:55 AM 37.4 °F 27.2 °F 28.4 °F 70% 29.95 in 10.0 mi NNW 19.6 mph 25.3 mph N/A   Clear
5:15 AM 37.4 °F 27.2 °F 28.4 °F 70% 29.95 in 10.0 mi NNW 19.6 mph 26.5 mph N/A   Clear
5:35 AM 37.4 °F 26.4 °F 26.6 °F 65% 29.94 in 10.0 mi NNW 23.0 mph 27.6 mph N/A   Clear
5:55 AM 37.4 °F 26.4 °F 28.4 °F 70% 29.94 in 10.0 mi NNW 23.0 mph 29.9 mph N/A   Clear
6:15 AM 37.4 °F 26.6 °F 28.4 °F 70% 29.93 in 10.0 mi NNW 21.9 mph 28.8 mph N/A   Clear
6:35 AM 37.4 °F 27.2 °F 28.4 °F 70% 29.93 in 10.0 mi NNW 19.6 mph 27.6 mph N/A   Clear
6:55 AM 37.4 °F 28.2 °F 28.4 °F 70% 29.92 in 10.0 mi NNW 16.1 mph 21.9 mph N/A   Clear
7:15 AM 37.4 °F 27.8 °F 28.4 °F 70% 29.91 in 10.0 mi NNW 17.3 mph 23.0 mph N/A   Clear
7:35 AM 37.4 °F 27.2 °F 28.4 °F 70% 29.91 in 10.0 mi NW 19.6 mph 24.2 mph N/A   Clear
7:55 AM 37.4 °F 27.5 °F 28.4 °F 70% 29.91 in 10.0 mi NNW 18.4 mph 25.3 mph N/A   Clear
8:15 AM 37.4 °F 27.2 °F 28.4 °F 70% 29.91 in 10.0 mi NNW 19.6 mph 23.0 mph N/A   Clear
8:35 AM 37.4 °F 26.9 °F 28.4 °F 70% 29.90 in 10.0 mi NNW 20.7 mph 26.5 mph N/A   Clear
8:55 AM 39.2 °F 29.6 °F 28.4 °F 65% 29.90 in 10.0 mi NNW 19.6 mph 27.6 mph N/A   Clear
9:15 AM 39.2 °F 29.3 °F 28.4 °F 65% 29.89 in 10.0 mi NNW 20.7 mph 26.5 mph N/A   Clear
9:35 AM 39.2 °F 28.5 °F 28.4 °F 65% 29.88 in 10.0 mi NNW 24.2 mph 33.4 mph N/A   Clear
9:55 AM 39.2 °F 29.0 °F 28.4 °F 65% 29.88 in 10.0 mi NNW 21.9 mph 29.9 mph N/A   Clear
10:15 AM 41.0 °F 31.6 °F 28.4 °F 61% 29.87 in 10.0 mi NNW 20.7 mph 29.9 mph N/A   Clear
10:35 AM 42.8 °F 34.3 °F 28.4 °F 57% 29.87 in 10.0 mi NNW 19.6 mph 32.2 mph N/A   Clear
10:55 AM 42.8 °F 33.8 °F 26.6 °F 53% 29.86 in 10.0 mi NNW 21.9 mph 32.2 mph N/A   Clear
11:15 AM 42.8 °F 33.3 °F 26.6 °F 53% 29.85 in 10.0 mi NNW 24.2 mph 28.8 mph N/A   Clear
11:35 AM 44.6 °F 35.7 °F 26.6 °F 49% 29.85 in 10.0 mi NNW 24.2 mph 31.1 mph N/A   Clear
11:55 AM 44.6 °F 35.9 °F 26.6 °F 49% 29.84 in 10.0 mi NNW 23.0 mph 32.2 mph N/A   Clear
12:15 PM 46.4 °F 37.9 °F 26.6 °F 46% 29.83 in 10.0 mi NNW 25.3 mph 28.8 mph N/A   Clear
12:35 PM 46.4 °F 37.9 °F 26.6 °F 46% 29.82 in 10.0 mi NNW 25.3 mph 32.2 mph N/A   Clear
12:55 PM 48.2 °F - 26.6 °F 43% 29.82 in 10.0 mi NNW 24.2 mph 32.2 mph N/A   Clear
1:15 PM 48.2 °F - 24.8 °F 40% 29.82 in 10.0 mi NNW 23.0 mph 31.1 mph N/A   Clear
1:35 PM 48.2 °F - 24.8 °F 40% 29.81 in 10.0 mi NNW 23.0 mph 32.2 mph N/A   Clear
1:55 PM 48.2 °F - 24.8 °F 40% 29.81 in 10.0 mi NNW 24.2 mph 32.2 mph N/A   Clear
2:15 PM 48.2 °F - 24.8 °F 40% 29.80 in 10.0 mi NW 23.0 mph 34.5 mph N/A   Clear
2:35 PM 50.0 °F - 24.8 °F 37% 29.80 in 10.0 mi NNW 25.3 mph 32.2 mph N/A   Clear
2:55 PM 48.2 °F - 24.8 °F 40% 29.80 in 10.0 mi NNW 23.0 mph 29.9 mph N/A   Clear
3:15 PM 48.2 °F - 24.8 °F 40% 29.80 in 10.0 mi NNW 27.6 mph 35.7 mph N/A   Clear
3:35 PM 50.0 °F - 24.8 °F 37% 29.80 in 10.0 mi NNW 21.9 mph 32.2 mph N/A   Clear
3:55 PM 51.8 °F - 24.8 °F 35% 29.80 in 10.0 mi NNW 21.9 mph 32.2 mph N/A   Clear
4:15 PM 50.0 °F - 24.8 °F 37% 29.80 in 10.0 mi NW 21.9 mph 28.8 mph N/A   Clear
4:35 PM 48.2 °F - 24.8 °F 40% 29.81 in 10.0 mi NNW 20.7 mph 29.9 mph N/A   Clear
4:55 PM 48.2 °F - 24.8 °F 40% 29.81 in 10.0 mi NNW 24.2 mph 28.8 mph N/A   Clear
5:15 PM 48.2 °F - 24.8 °F 40% 29.82 in 10.0 mi NNW 20.7 mph 27.6 mph N/A   Clear
5:35 PM 46.4 °F 39.5 °F 24.8 °F 43% 29.82 in 10.0 mi NNW 17.3 mph 25.3 mph N/A   Scattered Clouds
5:55 PM 46.4 °F 40.1 °F 24.8 °F 43% 29.83 in 10.0 mi NNW 15.0 mph 24.2 mph N/A   Scattered Clouds
6:15 PM 44.6 °F 36.6 °F 24.8 °F 46% 29.84 in 10.0 mi NNW 19.6 mph 24.2 mph N/A   Clear
6:35 PM 46.4 °F 40.1 °F 24.8 °F 43% 29.84 in 10.0 mi NW 15.0 mph 21.9 mph N/A   Mostly Cloudy
6:55 PM 44.6 °F 38.1 °F 26.6 °F 49% 29.84 in 10.0 mi NW 13.8 mph 19.6 mph N/A   Overcast
7:15 PM 44.6 °F 38.4 °F 26.6 °F 49% 29.85 in 10.0 mi NW 12.7 mph - N/A   Overcast
7:35 PM 44.6 °F 38.4 °F 26.6 °F 49% 29.84 in 10.0 mi NW 12.7 mph - N/A   Overcast
7:55 PM 44.6 °F 38.4 °F 26.6 °F 49% 29.85 in 10.0 mi NW 12.7 mph - N/A   Overcast
8:15 PM 44.6 °F 38.1 °F 26.6 °F 49% 29.85 in 10.0 mi NW 13.8 mph 17.3 mph N/A   Overcast
8:35 PM 44.6 °F 37.8 °F 26.6 °F 49% 29.85 in 10.0 mi NW 15.0 mph - N/A   Overcast
8:55 PM 44.6 °F 37.8 °F 24.8 °F 46% 29.84 in 10.0 mi NW 15.0 mph - N/A   Overcast
9:15 PM 44.6 °F 37.4 °F 24.8 °F 46% 29.84 in 10.0 mi NW 16.1 mph - N/A   Mostly Cloudy
9:35 PM 42.8 °F 35.4 °F 24.8 °F 49% 29.84 in 10.0 mi NW 15.0 mph 20.7 mph N/A   Scattered Clouds
9:55 PM 42.8 °F 36.2 °F 24.8 °F 49% 29.84 in 10.0 mi NW 12.7 mph - N/A   Clear
10:15 PM 41.0 °F 33.9 °F 24.8 °F 53% 29.84 in 10.0 mi NW 12.7 mph - N/A   Clear
10:35 PM 41.0 °F 33.5 °F 26.6 °F 57% 29.83 in 10.0 mi NW 13.8 mph 18.4 mph N/A   Clear
10:55 PM 41.0 °F 33.5 °F 26.6 °F 57% 29.83 in 10.0 mi NNW 13.8 mph - N/A   Clear
11:15 PM 39.2 °F 31.2 °F 26.6 °F 61% 29.83 in 10.0 mi NNW 13.8 mph - N/A   Clear
11:35 PM 39.2 °F 32.0 °F 24.8 °F 56% 29.82 in 10.0 mi NW 11.5 mph - N/A   Clear
11:55 PM 39.2 °F 32.0 °F 26.6 °F 61% 29.83 in 10.0 mi NNW 11.5 mph - N/A   Clear